HO-68 - Orbit

View from above orbital plane
View from above orbital plane
View from above satellite
View from above satellite

Ground track
Ground track

The orbit data is extracted from the following two-line orbital elements,

1 36122U 09072B   13139.16727724 -.00000044  00000-0  00000+0 0  5618
2 36122 100.3081 196.9503 0007935 060.6590 299.5318 13.16304287164599
Epoch (UTC): 19 May 2013 04:00:52
Eccentricity: 0.0007935
inclination: 100.3081°
perigee height: 1193 km
apogee height: 1205 km
right ascension of ascending node: 196.9503°
argument of perigee: 60.6590°
revolutions per day: 13.16304287
mean anomaly at epoch: 299.5318°
orbit number at epoch: 16459

The dashed part of the orbit path shows where the satellite is in the earth's shadow,  

Developed and maintained by Chris Peat, Heavens-Above GmbH. Please read the updated FAQ before sending e-mail. Imprint. DLR